Wind_Speed
7 7 7 7 6 6 5 4 4 4 3 2 2 3 3 3 3 3 3 3 3 3 4 4 4 5 5 5 5 5 5 6 6 6 6 6 6 7 7 8 8 8 8
6 6 6 5 5 5 4 4 3 3 3 3 3 3 3 3 3 3 4 4 4 4 5 5 5 6 6 7 7 7 7 7 7 7 7 8 8 9 9 9 10 10 10
5 5 5 4 4 3 3 3 2 2 3 3 3 3 3 3 3 4 4 5 5 6 6 7 7 7 7 8 8 9 9 9 9 9 9 9 10 10 10 11 11 11 12
5 5 4 3 3 2 2 2 2 1 2 2 3 3 3 4 4 5 5 6 6 7 7 8 8 9 9 9 10 10 11 11 11 11 11 11 11 12 12 12 12 13 13
5 4 3 2 2 2 1 1 1 1 2 2 2 3 4 5 5 6 7 7 8 8 9 9 9 9 10 11 11 11 12 12 12 13 13 13 13 14 14 13 13 13 14
4 3 2 2 1 1 1 0 1 1 2 3 4 4 4 4 5 6 6 7 7 8 9 10 10 11 11 12 12 12 13 13 13 14 14 14 14 15 15 15 15 15 15
4 4 2 1 1 0 1 1 2 3 2 3 4 4 4 5 5 6 6 7 8 9 10 10 10 11 12 12 13 13 14 14 14 14 14 15 15 15 16 17 17 17 17
4 3 3 2 1 1 1 2 2 2 3 3 4 5 5 5 5 6 7 8 9 10 11 11 12 12 12 12 12 13 13 14 14 14 15 15 16 17 17 18 19 19 19
5 3 2 2 1 1 2 2 3 3 4 4 4 5 5 6 7 7 8 9 10 10 10 11 11 11 12 11 11 13 14 14 14 15 16 17 17 18 18 18 18 19 19
6 5 4 3 3 2 3 3 3 4 5 5 5 6 6 8 8 8 9 9 9 10 10 11 12 12 12 12 12 13 14 15 15 16 17 17 18 18 19 19 19 19 20
7 6 5 5 5 3 3 3 4 5 6 7 7 8 8 8 9 9 9 10 10 10 11 11 11 13 13 13 14 15 16 16 17 17 17 17 17 18 19 19 20 20 20
6 6 6 6 6 5 5 5 5 6 7 7 8 8 9 9 9 10 10 11 11 11 12 12 13 13 14 15 15 16 16 17 18 17 17 18 18 19 19 20 20 20 20
7 6 6 6 6 6 6 6 6 6 6 7 8 9 9 10 10 11 11 11 12 13 13 14 14 15 15 16 16 17 17 18 18 18 19 19 20 20 20 21 21 22 22
6 6 6 7 7 7 7 7 7 7 7 8 8 10 10 11 12 12 13 13 14 14 15 15 16 17 17 17 17 18 18 18 18 19 19 20 20 21 21 22 22 22 23
6 6 7 7 8 8 8 8 8 8 8 9 9 10 12 13 13 14 14 14 15 15 16 17 17 17 18 18 18 18 19 19 19 20 20 21 21 21 22 22 23 24 24
6 7 8 8 8 8 9 9 9 9 9 10 11 12 13 14 15 15 15 16 17 17 18 18 19 19 19 19 19 20 19 20 21 21 21 22 22 23 23 23 24 25 25
8 8 9 9 9 9 10 10 11 11 12 12 13 14 14 14 15 16 16 17 17 18 19 19 20 20 20 20 20 20 20 21 21 22 23 23 24 24 25 25 25 26 26
9 10 10 10 11 11 12 13 13 14 14 15 15 15 16 16 16 17 17 18 18 19 19 18 19 19 20 20 21 21 21 22 23 24 25 25 26 26 26 26 26 26 27
11 12 12 12 12 13 14 14 15 15 15 16 16 17 17 16 17 17 18 18 19 19 19 19 19 20 21 22 22 22 23 24 25 26 26 26 26 26 27 27 27 28 28
12 13 13 14 14 14 15 16 16 16 16 16 17 17 18 17 18 19 19 20 20 20 21 22 22 23 23 23 24 24 25 26 26 26 26 26 27 27 28 28 29 29 30
14 15 15 15 16 16 17 17 17 17 17 18 18 19 19 19 19 20 20 21 22 22 23 23 24 24 25 25 26 26 27 27 28 28 28 28 28 28 29 30 30 31 31
16 17 17 17 17 18 18 18 18 19 19 20 20 21 21 21 21 22 22 23 24 24 24 24 25 25 25 26 27 27 27 28 29 29 29 29 29 29 30 30 31 31 31
19 19 20 20 20 20 20 20 20 21 21 22 23 23 23 23 24 24 24 25 25 25 26 26 26 26 27 27 28 28 28 29 29 29 29 29 30 30 31 31 31 31 31
22 22 22 22 22 22 22 22 22 23 23 24 24 24 25 25 26 27 27 26 27 27 27 27 28 28 28 28 28 29 29 29 29 30 30 30 31 31 31 32 31 31 31
24 24 24 25 25 24 24 24 24 25 25 26 26 26 26 26 27 28 29 29 28 28 28 28 28 28 28 29 29 29 29 30 30 30 30 31 31 31 31 31 31 31 31
27 27 27 27 27 27 27 27 27 27 27 28 28 28 29 29 29 29 30 30 30 29 29 30 29 29 29 30 30 30 30 30 30 30 30 30 30 31 31 31 31 31 31
Wind_Direction
126 124 125 125 133 135 135 141 152 156 163 168 180 187 194 202 210 217 230 238 240 236 243 251 252 256 265 269 271 274 278 283 287 287 283 280 278 280 283 279 278 281 283
128 130 130 131 131 137 149 150 160 178 187 194 187 191 199 217 228 238 250 254 256 254 257 261 264 270 274 274 272 275 278 282 284 286 285 283 281 282 285 282 279 279 279
125 134 136 140 139 136 137 152 169 188 190 196 200 205 219 231 242 251 254 261 259 260 263 265 268 271 276 277 276 278 279 279 279 283 285 283 282 282 283 283 280 278 277
130 134 134 140 142 133 132 152 174 193 201 207 210 222 240 255 262 264 261 264 264 263 268 268 271 271 274 277 280 280 280 279 279 283 285 283 281 280 283 283 282 280 279
121 128 134 143 153 156 162 166 184 211 228 226 235 257 266 267 275 273 267 268 269 266 267 269 271 272 274 275 280 281 281 283 284 285 284 283 280 279 281 282 282 282 280
109 119 133 130 121 126 193 243 262 268 263 255 261 272 278 274 282 282 276 277 278 272 272 273 274 273 275 277 279 282 280 283 285 286 286 286 282 280 280 281 282 282 281
100 105 105 123 123 238 305 305 277 278 282 268 259 272 281 280 284 283 283 282 281 278 275 278 277 278 278 279 279 283 281 280 283 286 287 288 287 284 282 280 281 280 280
87 87 86 87 67 286 277 284 274 277 277 282 278 273 275 286 291 292 288 289 288 282 279 279 278 278 280 281 282 282 282 282 282 285 287 287 287 286 284 279 279 279 279
75 75 62 39 1 324 304 298 298 303 299 300 299 289 287 288 291 292 292 292 289 285 285 285 286 284 284 286 289 287 283 285 286 288 290 290 288 287 284 282 282 280 280
65 62 50 29 6 339 322 308 309 306 307 306 302 298 296 291 293 292 292 290 289 285 285 284 286 290 290 289 290 291 287 286 288 289 291 290 288 287 285 285 284 282 283
58 54 45 34 22 0 331 313 306 303 300 300 298 295 292 295 292 290 292 291 289 285 284 285 288 290 289 287 290 291 289 287 288 290 292 291 288 288 289 287 286 286 284
51 46 37 30 20 7 348 325 310 304 300 298 298 300 298 295 294 293 291 291 291 289 290 290 290 291 291 288 289 289 289 288 289 289 293 292 289 286 286 287 286 286 285
46 40 29 20 14 4 354 341 330 324 319 314 310 305 303 299 297 297 294 291 291 291 292 292 291 292 292 289 288 287 287 288 290 290 291 292 291 288 287 285 286 285 283
34 26 17 12 6 358 350 341 331 324 320 319 317 310 304 300 298 297 294 292 289 289 290 291 291 291 291 291 290 289 288 290 291 290 291 292 291 289 286 286 286 285 284
18 11 7 359 352 348 344 340 337 329 323 320 317 313 308 303 300 298 296 294 292 290 290 291 290 290 291 292 293 292 291 292 291 291 291 291 289 289 288 287 286 286 286
360 355 351 349 347 343 338 337 336 331 322 317 313 310 308 305 302 298 296 295 292 291 292 291 290 290 291 291 292 292 292 293 293 293 292 290 290 289 288 288 288 287 287
343 342 341 338 337 334 329 325 322 321 318 314 310 308 305 304 305 302 299 298 296 294 293 291 290 290 291 292 292 291 292 293 294 294 293 293 292 291 289 287 287 287 286
329 328 328 329 330 327 324 319 315 314 313 312 310 309 307 306 307 306 303 302 300 299 297 294 292 291 291 293 293 292 293 294 294 294 293 292 291 290 290 288 287 287 286
320 320 321 321 320 320 318 316 316 313 311 311 312 311 310 309 307 307 305 304 303 301 298 297 294 293 293 294 293 292 292 293 294 294 293 292 292 291 290 290 289 288 287
313 313 313 315 314 315 315 313 313 312 310 310 310 310 309 308 307 306 305 305 303 301 299 297 294 294 292 292 292 292 292 292 294 295 294 293 293 291 290 290 289 288 287
307 308 309 311 313 313 313 314 313 312 311 309 309 307 306 305 305 305 304 303 303 302 301 299 296 294 292 292 292 292 293 293 293 293 292 293 292 291 290 290 290 289 288
304 305 305 308 310 310 311 311 312 312 310 310 309 308 305 303 303 303 302 302 301 301 302 301 299 295 294 293 293 292 293 294 293 293 292 292 291 291 290 290 291 290 288
303 305 304 304 304 305 306 306 307 307 307 306 307 306 306 304 301 301 300 300 301 301 301 300 300 298 296 295 293 293 293 293 294 293 293 292 291 290 291 291 291 291 288
300 301 301 299 300 301 302 303 302 302 305 307 307 307 305 303 302 300 299 300 301 300 301 300 299 299 298 296 294 294 293 294 295 294 293 292 291 291 292 292 291 290 289
293 297 299 300 297 297 298 299 303 305 305 307 305 305 304 303 301 301 299 299 299 298 299 299 298 298 297 297 296 295 295 295 296 296 294 292 291 291 292 292 291 290 290
289 292 294 296 298 299 299 299 299 303 304 305 306 305 305 303 302 300 298 297 297 297 297 297 297 297 297 297 297 296 296 296 296 295 294 294 293 293 293 292 292 291 291
Height
5879 5880 5881 5882 5883 5883 5884 5885 5886 5886 5887 5888 5888 5889 5889 5890 5891 5891 5892 5892 5893 5893 5893 5894 5894 5895 5895 5895 5895 5895 5895 5894 5894 5894 5894 5894 5893 5893 5893 5893 5893 5893 5892
5880 5881 5882 5883 5883 5884 5885 5886 5886 5886 5887 5888 5888 5889 5889 5890 5890 5891 5891 5892 5892 5892 5893 5893 5893 5894 5894 5894 5894 5893 5893 5893 5893 5893 5892 5892 5892 5892 5891 5891 5891 5891 5890
5881 5881 5882 5883 5884 5885 5885 5886 5886 5886 5887 5888 5888 5889 5889 5889 5890 5890 5891 5891 5891 5892 5892 5892 5892 5892 5892 5892 5892 5892 5892 5891 5891 5891 5891 5890 5890 5890 5889 5889 5889 5888 5888
5881 5882 5883 5884 5884 5885 5885 5886 5886 5886 5887 5887 5888 5888 5889 5889 5889 5889 5890 5890 5890 5890 5890 5891 5891 5891 5891 5891 5890 5890 5890 5889 5889 5889 5888 5888 5888 5887 5887 5886 5886 5886 5885
5882 5883 5883 5884 5885 5885 5885 5886 5886 5886 5887 5887 5887 5888 5888 5888 5888 5888 5888 5889 5889 5889 5889 5889 5889 5889 5889 5888 5888 5888 5887 5887 5886 5886 5886 5885 5885 5885 5884 5884 5883 5883 5882
5883 5883 5884 5884 5885 5885 5885 5885 5886 5886 5886 5886 5886 5887 5887 5887 5887 5887 5887 5887 5887 5887 5887 5887 5886 5886 5886 5886 5885 5885 5884 5884 5884 5883 5883 5882 5882 5881 5881 5881 5880 5880 5879
5883 5884 5884 5884 5885 5885 5885 5885 5885 5885 5885 5885 5885 5886 5886 5886 5885 5885 5885 5885 5885 5885 5885 5884 5884 5884 5883 5883 5883 5882 5881 5881 5881 5880 5880 5879 5878 5878 5877 5877 5876 5876 5875
5884 5884 5885 5884 5884 5884 5885 5884 5885 5884 5884 5884 5884 5884 5884 5885 5884 5884 5884 5884 5883 5883 5882 5882 5881 5881 5880 5880 5879 5879 5879 5878 5877 5877 5876 5875 5875 5874 5873 5872 5872 5871 5871
5885 5885 5885 5884 5884 5884 5884 5884 5884 5884 5884 5883 5883 5883 5883 5883 5883 5883 5882 5881 5881 5880 5880 5879 5878 5878 5877 5877 5876 5875 5875 5875 5874 5873 5872 5872 5871 5870 5869 5868 5867 5867 5866
5885 5885 5885 5884 5884 5884 5884 5883 5883 5883 5883 5882 5882 5881 5881 5881 5881 5881 5880 5879 5878 5878 5877 5877 5876 5875 5875 5874 5873 5872 5872 5871 5870 5869 5869 5868 5867 5866 5864 5864 5863 5862 5861
5886 5886 5885 5885 5884 5883 5883 5883 5883 5882 5882 5881 5880 5880 5879 5879 5878 5878 5878 5877 5876 5876 5875 5874 5873 5873 5872 5871 5870 5869 5868 5867 5866 5865 5865 5863 5862 5861 5860 5859 5859 5858 5856
5887 5887 5886 5885 5884 5883 5883 5882 5881 5881 5880 5879 5879 5878 5877 5877 5876 5876 5875 5874 5874 5873 5872 5871 5870 5870 5869 5868 5867 5866 5865 5864 5862 5861 5860 5859 5858 5857 5856 5855 5854 5853 5851
5888 5887 5887 5885 5884 5883 5882 5881 5880 5880 5879 5878 5877 5876 5876 5875 5874 5873 5873 5872 5871 5870 5869 5868 5867 5866 5865 5864 5863 5862 5861 5859 5858 5857 5856 5854 5853 5851 5850 5849 5849 5847 5846
5889 5888 5887 5885 5884 5883 5882 5880 5879 5878 5878 5877 5876 5874 5873 5873 5872 5871 5870 5869 5868 5867 5866 5865 5863 5862 5861 5860 5859 5857 5856 5855 5854 5852 5851 5849 5848 5846 5845 5844 5843 5842 5841
5889 5888 5887 5885 5884 5882 5881 5879 5878 5877 5876 5875 5874 5872 5871 5870 5869 5868 5867 5866 5865 5863 5862 5861 5860 5858 5857 5855 5854 5853 5852 5850 5849 5848 5846 5844 5843 5841 5840 5839 5838 5836 5835
5889 5888 5886 5885 5883 5882 5880 5878 5877 5876 5874 5873 5871 5870 5869 5867 5866 5864 5863 5861 5860 5859 5858 5857 5855 5854 5852 5851 5850 5848 5847 5845 5844 5842 5841 5839 5837 5836 5834 5833 5831 5830 5828
5888 5887 5885 5884 5882 5880 5879 5877 5875 5874 5872 5870 5869 5867 5866 5864 5862 5861 5859 5858 5856 5855 5854 5852 5850 5849 5847 5846 5844 5843 5841 5840 5838 5837 5835 5833 5832 5830 5828 5827 5825 5823 5821
5887 5885 5884 5882 5881 5879 5877 5875 5873 5871 5869 5867 5866 5864 5862 5861 5859 5857 5855 5854 5852 5850 5848 5847 5845 5844 5842 5841 5839 5837 5836 5834 5833 5831 5829 5827 5825 5823 5821 5820 5818 5816 5814
5885 5883 5881 5880 5878 5876 5874 5872 5870 5868 5866 5864 5862 5861 5859 5857 5855 5853 5851 5849 5847 5845 5844 5842 5840 5838 5837 5835 5833 5832 5830 5828 5826 5824 5822 5820 5818 5816 5814 5812 5810 5808 5807
5882 5881 5879 5877 5875 5873 5871 5869 5867 5865 5862 5860 5859 5857 5855 5852 5851 5849 5847 5844 5842 5840 5838 5836 5835 5833 5831 5829 5827 5825 5823 5821 5819 5817 5815 5813 5811 5809 5807 5805 5803 5801 5799
5879 5878 5876 5874 5872 5870 5868 5866 5863 5861 5859 5856 5854 5852 5850 5848 5846 5844 5842 5839 5837 5835 5833 5831 5829 5827 5825 5822 5820 5818 5816 5814 5812 5810 5808 5805 5803 5801 5799 5796 5794 5792 5790
5875 5874 5872 5870 5868 5866 5864 5862 5859 5857 5855 5853 5850 5847 5845 5843 5841 5839 5836 5834 5832 5829 5827 5825 5822 5820 5818 5816 5813 5811 5809 5807 5805 5803 5800 5798 5795 5793 5790 5788 5786 5784 5781
5871 5870 5868 5866 5864 5862 5860 5857 5855 5853 5850 5848 5845 5843 5840 5838 5835 5833 5830 5828 5825 5823 5821 5818 5816 5813 5811 5809 5806 5804 5801 5799 5797 5794 5792 5789 5787 5785 5782 5780 5777 5775 5773
5866 5865 5863 5861 5859 5857 5855 5852 5850 5847 5845 5843 5840 5837 5834 5832 5829 5826 5824 5822 5819 5816 5813 5811 5809 5806 5804 5801 5798 5796 5793 5791 5788 5786 5783 5781 5779 5777 5774 5771 5769 5766 5764
5861 5859 5857 5855 5853 5851 5849 5846 5844 5841 5839 5836 5833 5830 5828 5825 5822 5819 5817 5814 5811 5809 5806 5803 5801 5798 5796 5793 5790 5788 5785 5783 5780 5778 5775 5773 5770 5768 5766 5763 5760 5758 5756
5855 5853 5851 5849 5847 5845 5843 5840 5838 5835 5832 5829 5826 5823 5821 5818 5815 5811 5808 5806 5803 5800 5798 5796 5793 5791 5788 5785 5782 5780 5777 5774 5772 5770 5767 5765 5762 5759 5757 5754 5752 5749 5747